Weather History for Greenville, SC

Change the Weather History Date:

Tuesday, April 30, 2013

  Actual Average (KGSP) Record (KGSP)
Temperature  
Mean Temperature 64 °F 64 °F  
Max Temperature 75 °F 76 °F 91 °F (1987)
Min Temperature 53 °F 52 °F 39 °F (1980)
Degree Days  
Heating Degree Days 1 3  
Month to date heating degree days 173  
Since 1 July heating degree days 3006  
Cooling Degree Days 0 2  
Month to date cooling degree days 40  
Year to date cooling degree days 48  
Growing Degree Days 14 (Base 50)    
Moisture  
Dew Point 58 °F    
Average Humidity 89    
Maximum Humidity 100    
Minimum Humidity 53    
Precipitation  
Precipitation 0.00 in 0.11 in 1.86 in (1953)
Month to date precipitation 3.36  
Year to date precipitation 15.67  
Snow  
Snow 0.00 in 0.00 in 0.00 in ()
Month to date snowfall T  
Since 1 July snowfall 4.7  
Snow Depth -    
Sea Level Pressure  
Sea Level Pressure 30.06 in    
Wind  
Wind Speed 3 mph (ENE)    
Max Wind Speed 14 mph    
Max Gust Speed 20 mph    
Visibility 7 miles    
Events Fog    
T = Trace of Precipitation, MM = Missing Value Source: NWS Daily Summary

Daily Weather History Graph

Daily Weather History Graph

Search for Another Location

Airport:

Trip Planner

Search our weather history database for the weather conditions in past years. The results will help you decide how hot, cold, wet, or windy it might be!

Date:

Astronomy

Apr. 30, 2013 Rise Set
Actual Time 6:39 AM EDT 8:13 PM EDT
Civil Twilight 6:12 AM EDT 8:40 PM EDT
Nautical Twilight 5:40 AM EDT 9:13 PM EDT
Astronomical Twilight 5:06 AM EDT 9:47 PM EDT
Moon 12:33 AM EDT (4/30) 11:09 AM EDT (4/30)
Length of Visible Light 14h 27m
Length of Day
13h 34m
Waning Gibbous, 70% of the Moon is Illuminated
Apr 30
Waning Gibbous
May 2
Last Quarter
May 9
New
May 18
First Quarter
May 25
Full

Hourly Weather History & Observations

Time (EDT) Temp. Dew Point Humidity Pressure Visibility Wind Dir Wind Speed Gust Speed Precip Events Conditions
12:15 AM 60.8 °F 59.0 °F 94% 30.01 in 10.0 mi Calm Calm - N/A   Clear
12:35 AM 60.8 °F 59.0 °F 94% 30.01 in 10.0 mi Calm Calm - N/A   Clear
12:55 AM 59.0 °F 59.0 °F 100% 30.00 in 7.0 mi Calm Calm - N/A   Clear
1:15 AM 57.2 °F 55.4 °F 94% 29.99 in 5.0 mi Calm Calm - N/A   Clear
1:35 AM 57.2 °F 57.2 °F 100% 29.99 in 7.0 mi Calm Calm - N/A   Clear
1:55 AM 57.2 °F 57.2 °F 100% 29.99 in 4.0 mi NNW 4.6 mph - N/A   Clear
2:15 AM 59.0 °F 57.2 °F 94% 29.99 in 4.0 mi NW 5.8 mph - N/A   Clear
2:35 AM 57.2 °F 57.2 °F 100% 29.99 in 4.0 mi NW 4.6 mph - N/A   Clear
2:55 AM 57.2 °F 57.2 °F 100% 29.99 in 4.0 mi NNW 3.5 mph - N/A   Clear
3:15 AM 57.2 °F 57.2 °F 100% 29.99 in 4.0 mi NW 3.5 mph - N/A   Scattered Clouds
3:35 AM 57.2 °F 57.2 °F 100% 29.99 in 2.0 mi NW 3.5 mph - N/A   Mostly Cloudy
3:55 AM 59.0 °F 57.2 °F 94% 30.00 in 4.0 mi NNW 3.5 mph - N/A   Scattered Clouds
4:15 AM 59.0 °F 57.2 °F 94% 30.01 in 5.0 mi Calm Calm - N/A   Clear
4:55 AM 53.6 °F 53.6 °F 100% 30.01 in 3.0 mi Calm Calm - N/A   Clear
5:15 AM 53.6 °F 53.6 °F 100% 30.02 in 0.5 mi Calm Calm - N/A Fog Fog
5:35 AM 53.6 °F 53.6 °F 100% 30.02 in 0.8 mi Calm Calm - N/A   Mist
5:55 AM 55.4 °F 55.4 °F 100% 30.03 in 2.5 mi Calm Calm - N/A   Scattered Clouds
6:15 AM 55.4 °F 55.4 °F 100% 30.04 in 5.0 mi Calm Calm - N/A   Overcast
6:35 AM 55.4 °F 55.4 °F 100% 30.04 in 4.0 mi Calm Calm - N/A   Mostly Cloudy
6:47 AM 55.4 °F 55.4 °F 100% 30.05 in 5.0 mi ENE 3.5 mph - N/A   Scattered Clouds
7:47 AM 59.0 °F 57.2 °F 94% 30.07 in 5.0 mi NE 4.6 mph - N/A   Clear
8:10 AM 60.8 °F 59.0 °F 94% 30.08 in 2.0 mi NNE 4.6 mph - N/A   Mostly Cloudy
8:33 AM 59.0 °F 59.0 °F 100% 30.08 in 0.2 mi NE 6.9 mph - N/A Fog Fog
8:50 AM 60.8 °F 59.0 °F 94% 30.08 in 1.0 mi NE 8.1 mph - N/A   Overcast
9:48 AM 62.6 °F 60.8 °F 94% 30.09 in 5.0 mi NE 6.9 mph - N/A   Overcast
10:47 AM 66.2 °F 62.6 °F 88% 30.10 in 10.0 mi ENE 9.2 mph - N/A   Mostly Cloudy
11:47 AM 69.8 °F 62.6 °F 78% 30.11 in 10.0 mi East 8.1 mph - N/A   Mostly Cloudy
12:47 PM 69.8 °F 62.6 °F 78% 30.10 in 10.0 mi East 5.8 mph - N/A   Mostly Cloudy
1:47 PM 71.6 °F 62.6 °F 73% 30.08 in 10.0 mi ENE 9.2 mph - N/A   Scattered Clouds
2:47 PM 73.4 °F 64.4 °F 73% 30.07 in 10.0 mi East 9.2 mph - N/A   Mostly Cloudy
3:47 PM 73.4 °F 60.8 °F 65% 30.06 in 10.0 mi SE 8.1 mph 16.1 mph N/A   Mostly Cloudy
4:47 PM 75.2 °F 57.2 °F 53% 30.07 in 10.0 mi SE 3.5 mph - N/A   Scattered Clouds
5:47 PM 75.2 °F 57.2 °F 53% 30.08 in 10.0 mi SSE 9.2 mph - N/A   Scattered Clouds
6:47 PM 73.4 °F 57.2 °F 57% 30.08 in 10.0 mi East 13.8 mph 19.6 mph N/A   Scattered Clouds
7:47 PM 69.8 °F 57.2 °F 64% 30.09 in 10.0 mi East 10.4 mph - N/A   Clear
8:47 PM 66.2 °F 64.4 °F 94% 30.11 in 10.0 mi East 4.6 mph - N/A   Clear
9:15 PM 64.4 °F 59.0 °F 83% 30.11 in 10.0 mi East 4.6 mph - N/A   Clear
9:35 PM 64.4 °F 59.0 °F 83% 30.13 in 10.0 mi ENE 4.6 mph - N/A   Clear
9:55 PM 64.4 °F 59.0 °F 83% 30.13 in 10.0 mi NE 5.8 mph - N/A   Clear
10:15 PM 62.6 °F 59.0 °F 88% 30.13 in 10.0 mi NE 6.9 mph - N/A   Clear
10:35 PM 62.6 °F 60.8 °F 94% 30.14 in 10.0 mi ENE 8.1 mph - N/A   Clear
10:55 PM 64.4 °F 60.8 °F 88% 30.16 in 10.0 mi ENE 9.2 mph - N/A   Scattered Clouds
11:15 PM 64.4 °F 59.0 °F 83% 30.16 in 10.0 mi ENE 10.4 mph - N/A   Mostly Cloudy
11:35 PM 62.6 °F 59.0 °F 88% 30.17 in 10.0 mi East 12.7 mph - N/A   Scattered Clouds
11:55 PM 62.6 °F 59.0 °F 88% 30.17 in 10.0 mi East 9.2 mph - N/A   Clear